Вернуться в каталог

STARLINK-34539

АктивенСвязьVLEO
NORAD 64674·PAYLOAD·🇺🇸 United States

Запущен Jun 28, 2025 с Cape Canaveral Space Force Station

Loading…

Ближайшие Пролёты (ближайшие 24 часа)

TLE

СвежийSource: CelesTrak SupGP

Эпоха: Sep 14, 2026, 21:09 UTC

1 64674C 25139L   26257.88173611 -.00014992  00000+0 -44320-3 0  2573
2 64674  53.1582 323.8501 0001152  84.2833 234.2726 15.34380039    15

Отслеживайте STARLINK-34539 в реальном времени с AllMySat

Download on the App Store